| ID | Machine | Gebeurtenis | Tijd | Uren | Service | Status | USB ID | |
|---|---|---|---|---|---|---|---|---|
| 170269 | 30-007 | Low Fuel Level Warning | 07-10-2024 00:38:01 | 4127 | - | Niet ingesteld | 2592B8FD82A | |
| 108621 | 30-007 | Battery Voltage | 13-09-2024 09:30:26 | 3988 | - | Niet ingesteld | 2592B8FD82A | |
| 108622 | 30-007 | Engine Stopped | 13-09-2024 09:30:21 | 3988 | - | Niet ingesteld | 2592B8FD82A | |
| 108620 | 30-007 | kW Overload Alarm Electrical Trip | 13-09-2024 09:29:30 | 3988 | - | Niet ingesteld | 2592B8FD82A | |
| 108075 | 30-007 | Engine Stopped | 10-09-2024 17:00:41 | 3981 | - | Niet ingesteld | 2592B8FD82A | |
| 27184 | 30-007 | Battery Voltage | 04-09-2024 07:10:44 | 3892 | - | Niet ingesteld | 2592B8FD82A | |
| 27154 | 30-007 | Engine Stopped | 03-09-2024 16:25:57 | 3891 | - | Niet ingesteld | 2592B8FD82A | |
| 25974 | 30-007 | Engine Stopped | 31-08-2024 12:50:56 | 3881 | - | Niet ingesteld | 2592B8FD82A | |
| 25972 | 30-007 | Generator Over Current Warning | 31-08-2024 12:38:40 | 3881 | - | Niet ingesteld | 2592B8FD82A | |
| 25944 | 30-007 | Battery Voltage | 31-08-2024 10:54:14 | 3879 | - | Niet ingesteld | 2592B8FD82A | |
| 25941 | 30-007 | Engine Stopped | 31-08-2024 10:34:29 | 3879 | - | Niet ingesteld | 2592B8FD82A | |
| 5068 | 30-007 | Generator Over Current Warning | 19-08-2024 12:16:32 | 3877 | - | Niet ingesteld | 2592B8FD82A | |
| 4889 | 30-007 | Generator Over Current Warning | 18-08-2024 17:24:02 | 3858 | - | Niet ingesteld | 2592B8FD82A | |
| 4720 | 30-007 | Generator Over Current Warning | 17-08-2024 12:22:21 | 3829 | - | Niet ingesteld | 2592B8FD82A | |
| 4697 | 30-007 | Generator Over Current Warning | 17-08-2024 10:53:35 | 3828 | - | Niet ingesteld | 2592B8FD82A | |
| 4665 | 30-007 | Generator Over Current Warning | 17-08-2024 06:42:05 | 3824 | - | Niet ingesteld | 2592B8FD82A | |
| 4623 | 30-007 | Generator Over Current Warning | 16-08-2024 19:10:02 | 3812 | - | Niet ingesteld | 2592B8FD82A | |
| 4620 | 30-007 | Generator Over Current Warning | 16-08-2024 19:08:41 | 3812 | - | Niet ingesteld | 2592B8FD82A | |
| 4619 | 30-007 | Generator Over Current Warning | 16-08-2024 19:06:56 | 3812 | - | Niet ingesteld | 2592B8FD82A | |
| 4618 | 30-007 | Generator Over Current Warning | 16-08-2024 19:02:45 | 3812 | - | Niet ingesteld | 2592B8FD82A | |
| 2541 | 30-007 | Engine Stopped | 11-08-2024 15:25:44 | 3759 | - | Niet ingesteld | 2592B8FD82A | |
| 2458 | 30-007 | Engine Stopped | 10-08-2024 15:58:05 | 3755 | - | Niet ingesteld | 2592B8FD82A | |
| 2422 | 30-007 | Battery Voltage | 10-08-2024 09:59:34 | 3749 | - | Niet ingesteld | 2592B8FD82A | |
| 2419 | 30-007 | Engine Stopped | 10-08-2024 08:50:54 | 3749 | - | Niet ingesteld | 2592B8FD82A | |
| 2418 | 30-007 | Engine Stopped | 10-08-2024 08:36:32 | 3748 | - | Niet ingesteld | 2592B8FD82A |